Location: Schommer Observatory
(40.5200°N, 74.4500°W)
Time: 08:56:06
(UTC-05:00)

OTV 5 (USA 277) - Pass Details

Date: 17 November 2017
Orbit: 404 x 417 km, 43.0° (Epoch: 07 September)

Event Time Altitude Azimuth Distance (km) Brightness Sun altitude
Exits shadow 05:53:06 16° 283° (WNW) 1,152 ? -10.4°
Maximum altitude 05:55:36 71° 201° (SSW) 429 ? -9.9°
Drops below altitude 10° 05:58:52 10° 117° (ESE) 1,451 ? -9.3°
Sets 06:00:58 0° 115° (ESE) 2,309 ? -9.0°
